User: anonymous   Login
Location: B�rgermoos
(47.6500°N, 9.0667°E)
Time: 03:29:39
(UTC+00:00)
Language:

Meteor 2-9 Rocket - Orbit

View from above orbital plane
View from above orbital plane
View from above satellite
View from above satellite

Ground track
Ground track

The orbit data is extracted from the following two-line orbital elements,

1 13719U 82116B   20329.47025758  .00000085  00000-0  36612-4 0  9998
2 13719  81.2558 209.6341 0071792   9.8999 163.3030 14.14661295957980
Epoch (UTC): 24 November 2020 11:17:10
Eccentricity: 0.0071792
inclination: 81.2558°
perigee height: 791 km
apogee height: 895 km
right ascension of ascending node: 209.6341°
argument of perigee: 9.8999°
revolutions per day: 14.14661295
mean anomaly at epoch: 163.3030°
orbit number at epoch: 95798

The dashed part of the orbit path shows where the satellite is in the earth's shadow,  

DLR